When you browse on this site, cookies collect data to enhance your experience and personalize the content and advertising you see.
Visit our Privacy Policy to learn more. By continuing to use the site, you agree to this use of cookies and data.
  • In United Kingdom
  • List of Countries
  • For 7 days
  • Water Temperature
  • Satellite Maps
  • Weather Map
  • Weather Widgets
  • user-avatar
    Login

    Hourly Weather Aberfoyle

    Today, 23 April, Tuesday

    Time Temperature Precipitation Wind Pressure Humidity
    00:00 +8°C° 0 mm 3 mps 729 mmHg 89%
    01:00 +7°C° 0 mm 3 mps 729 mmHg 89%
    02:00 +7°C° 0 mm 3 mps 728 mmHg 89%
    03:00 +7°C° 0 mm 2 mps 728 mmHg 88%
    04:00 +5°C° 0 mm 3 mps 728 mmHg 90%
    05:00 +5°C° 0 mm 3 mps 728 mmHg 91%
    06:00 +6°C° 0 mm 2 mps 728 mmHg 92%
    07:00 +8°C° 0 mm 3 mps 728 mmHg 88%
    08:00 +9°C° 0 mm 3 mps 728 mmHg 83%
    09:00 +11°C° 0 mm 4 mps 728 mmHg 78%
    10:00 +12°C° 0 mm 4 mps 728 mmHg 74%
    11:00 +14°C° 0 mm 5 mps 728 mmHg 69%
    12:00 +15°C° 0 mm 5 mps 728 mmHg 65%
    13:00 +15°C° 0 mm 6 mps 728 mmHg 64%
    14:00 +15°C° 0 mm 6 mps 727 mmHg 63%
    15:00 +14°C° 0 mm 7 mps 727 mmHg 63%
    16:00 +13°C° 0 mm 6 mps 727 mmHg 67%
    17:00 +11°C° 0 mm 6 mps 727 mmHg 72%
    18:00 +9°C° 0 mm 5 mps 726 mmHg 77%
    19:00 +8°C° 0 mm 5 mps 726 mmHg 80%
    20:00 +7°C° 0 mm 5 mps 727 mmHg 84%
    21:00 +6°C° 0 mm 5 mps 727 mmHg 88%
    22:00 +6°C° 0 mm 5 mps 726 mmHg 89%
    23:00 +6°C° 0 mm 4 mps 726 mmHg 90%

    Tomorrow, 24 April, Wednesday

    Time Temperature Precipitation Wind Pressure Humidity
    00:00 +6°C° 0 mm 4 mps 726 mmHg 90%
    01:00 +6°C° 0 mm 4 mps 726 mmHg 91%
    02:00 +6°C° 0 mm 4 mps 725 mmHg 91%
    03:00 +6°C° 0 mm 4 mps 725 mmHg 91%
    04:00 +6°C° 0 mm 5 mps 725 mmHg 91%
    05:00 +7°C° 0 mm 5 mps 724 mmHg 91%
    06:00 +7°C° 0 mm 5 mps 724 mmHg 91%
    07:00 +7°C° 0 mm 6 mps 724 mmHg 89%
    08:00 +8°C° 0 mm 7 mps 724 mmHg 87%
    09:00 +8°C° 0 mm 7 mps 724 mmHg 85%
    10:00 +8°C° 0 mm 7 mps 723 mmHg 84%
    11:00 +9°C° 0 mm 8 mps 723 mmHg 83%
    12:00 +9°C° 0 mm 8 mps 723 mmHg 82%
    13:00 +9°C° 0 mm 8 mps 722 mmHg 82%
    14:00 +9°C° 0 mm 8 mps 722 mmHg 82%
    15:00 +9°C° 0 mm 8 mps 722 mmHg 81%
    16:00 +9°C° 0 mm 8 mps 721 mmHg 84%
    17:00 +8°C° 0 mm 7 mps 721 mmHg 86%
    18:00 +8°C° 0 mm 6 mps 720 mmHg 89%
    19:00 +8°C° 0.1 mm 6 mps 720 mmHg 91%
    20:00 +7°C° 0.1 mm 5 mps 720 mmHg 92%
    21:00 +7°C° 0.1 mm 4 mps 720 mmHg 94%
    22:00 +8°C° 0.4 mm 3 mps 720 mmHg 94%
    23:00 +8°C° 0.4 mm 3 mps 721 mmHg 94%

    Day after tomorrow, 25 April, Thursday

    Time Temperature Precipitation Wind Pressure Humidity
    00:00 +8°C° 0.4 mm 2 mps 721 mmHg 95%
    01:00 +8°C° 0 mm 2 mps 721 mmHg 95%
    02:00 +8°C° 0 mm 2 mps 721 mmHg 94%
    03:00 +7°C° 0 mm 2 mps 722 mmHg 94%
    04:00 +8°C° 0 mm 1 mps 722 mmHg 94%
    05:00 +8°C° 0 mm 1 mps 722 mmHg 95%
    06:00 +7°C° 0 mm 1 mps 722 mmHg 95%
    07:00 +9°C° 0 mm 1 mps 723 mmHg 88%
    08:00 +9°C° 0 mm 2 mps 723 mmHg 81%
    09:00 +10°C° 0 mm 3 mps 723 mmHg 74%
    10:00 +11°C° 0.1 mm 3 mps 723 mmHg 71%
    11:00 +12°C° 0.1 mm 4 mps 723 mmHg 68%
    12:00 +13°C° 0.1 mm 5 mps 723 mmHg 65%
    13:00 +11°C° 2.3 mm 4 mps 723 mmHg 76%
    14:00 +9°C° 2.3 mm 3 mps 723 mmHg 86%
    15:00 +7°C° 2.3 mm 2 mps 723 mmHg 96%
    16:00 +8°C° 1.2 mm 2 mps 723 mmHg 93%
    17:00 +8°C° 1.2 mm 2 mps 724 mmHg 90%
    18:00 +8°C° 1.2 mm 2 mps 724 mmHg 88%
    19:00 +7°C° 0 mm 2 mps 725 mmHg 88%
    20:00 +6°C° 0 mm 2 mps 726 mmHg 88%
    21:00 +6°C° 0 mm 2 mps 726 mmHg 88%
    22:00 +5°C° 0 mm 2 mps 727 mmHg 90%
    23:00 +4°C° 0 mm 2 mps 727 mmHg 91%

    26 April, Friday

    Time Temperature Precipitation Wind Pressure Humidity
    00:00 +5°C° 0 mm 1 mps 728 mmHg 93%
    01:00 +4°C° 0 mm 1 mps 728 mmHg 93%
    02:00 +4°C° 0 mm 1 mps 728 mmHg 94%
    03:00 +4°C° 0 mm 1 mps 728 mmHg 94%
    04:00 +4°C° 0 mm 1 mps 728 mmHg 94%
    05:00 +4°C° 0 mm 1 mps 728 mmHg 94%
    06:00 +5°C° 0 mm 1 mps 729 mmHg 94%
    07:00 +6°C° 0 mm 2 mps 729 mmHg 87%
    08:00 +7°C° 0 mm 2 mps 729 mmHg 80%
    09:00 +9°C° 0 mm 3 mps 729 mmHg 74%
    10:00 +10°C° 0.2 mm 3 mps 729 mmHg 69%
    11:00 +11°C° 0.2 mm 4 mps 730 mmHg 65%
    12:00 +12°C° 0.2 mm 4 mps 730 mmHg 60%
    13:00 +12°C° 0.3 mm 5 mps 730 mmHg 60%
    14:00 +12°C° 0.3 mm 5 mps 730 mmHg 60%
    15:00 +12°C° 0.3 mm 5 mps 730 mmHg 60%
    16:00 +11°C° 0.2 mm 4 mps 730 mmHg 66%
    17:00 +10°C° 0.2 mm 3 mps 730 mmHg 73%
    18:00 +8°C° 0.2 mm 2 mps 730 mmHg 80%
    19:00 +7°C° 0.1 mm 2 mps 731 mmHg 84%
    20:00 +7°C° 0.1 mm 2 mps 731 mmHg 89%
    21:00 +7°C° 0.1 mm 1 mps 732 mmHg 93%
    22:00 +5°C° 0.1 mm 2 mps 732 mmHg 93%
    23:00 +5°C° 0.1 mm 2 mps 732 mmHg 93%

    27 April, Saturday

    Time Temperature Precipitation Wind Pressure Humidity
    00:00 +5°C° 0.1 mm 2 mps 732 mmHg 92%
    01:00 +5°C° 0.1 mm 2 mps 733 mmHg 91%
    02:00 +3°C° 0.1 mm 3 mps 733 mmHg 91%
    03:00 +3°C° 0.1 mm 3 mps 733 mmHg 90%
    04:00 +3°C° 0.1 mm 3 mps 734 mmHg 88%
    05:00 +3°C° 0.1 mm 4 mps 734 mmHg 86%
    06:00 +3°C° 0.1 mm 4 mps 735 mmHg 84%
    07:00 +4°C° 0.1 mm 4 mps 736 mmHg 79%
    08:00 +4°C° 0.1 mm 4 mps 737 mmHg 75%
    09:00 +5°C° 0.1 mm 5 mps 737 mmHg 70%
    10:00 +6°C° 0 mm 5 mps 738 mmHg 64%
    11:00 +7°C° 0 mm 4 mps 739 mmHg 58%
    12:00 +8°C° 0 mm 4 mps 739 mmHg 51%
    13:00 +10°C° 0 mm 4 mps 740 mmHg 49%
    14:00 +10°C° 0 mm 4 mps 740 mmHg 48%
    15:00 +10°C° 0 mm 4 mps 740 mmHg 46%
    16:00 +8°C° 0 mm 4 mps 740 mmHg 48%
    17:00 +9°C° 0 mm 3 mps 741 mmHg 51%
    18:00 +8°C° 0 mm 2 mps 741 mmHg 53%
    19:00 +7°C° 0 mm 2 mps 741 mmHg 57%
    20:00 +6°C° 0 mm 2 mps 741 mmHg 61%
    21:00 +5°C° 0 mm 2 mps 741 mmHg 65%
    22:00 +5°C° 0.1 mm 2 mps 740 mmHg 71%
    23:00 +5°C° 0.1 mm 2 mps 740 mmHg 78%

    28 April, Sunday

    Time Temperature Precipitation Wind Pressure Humidity
    00:00 +4°C° 0.1 mm 3 mps 739 mmHg 85%
    01:00 +4°C° 0.2 mm 3 mps 739 mmHg 88%
    02:00 +4°C° 0.2 mm 3 mps 738 mmHg 90%
    03:00 +5°C° 0.2 mm 4 mps 738 mmHg 93%
    04:00 +5°C° 0.6 mm 4 mps 737 mmHg 94%
    05:00 +6°C° 0.6 mm 4 mps 737 mmHg 95%
    06:00 +6°C° 0.6 mm 4 mps 736 mmHg 97%
    07:00 +7°C° 0.1 mm 4 mps 736 mmHg 96%
    08:00 +7°C° 0.1 mm 4 mps 736 mmHg 95%
    09:00 +8°C° 0.1 mm 5 mps 736 mmHg 94%
    10:00 +8°C° 0.1 mm 5 mps 735 mmHg 94%
    11:00 +8°C° 0.1 mm 5 mps 735 mmHg 93%
    12:00 +8°C° 0.1 mm 5 mps 735 mmHg 93%
    13:00 +8°C° 0.4 mm 5 mps 735 mmHg 92%
    14:00 +8°C° 0.4 mm 4 mps 734 mmHg 92%
    15:00 +10°C° 0.4 mm 4 mps 734 mmHg 91%
    16:00 +8°C° 1.2 mm 4 mps 733 mmHg 93%
    17:00 +8°C° 1.2 mm 4 mps 733 mmHg 95%
    18:00 +9°C° 1.2 mm 3 mps 733 mmHg 97%
    19:00 +8°C° 0.2 mm 3 mps 733 mmHg 97%
    20:00 +8°C° 0.2 mm 2 mps 733 mmHg 97%
    21:00 +9°C° 0.2 mm 1 mps 733 mmHg 98%
    22:00 +9°C° 0.1 mm 1 mps 733 mmHg 98%
    23:00 +9°C° 0.1 mm 1 mps 733 mmHg 98%
    Show more